This demonstration page uses our WeatherBlox Daily Observations layout. Learn more.

Left ArrowRight Arrow

41.86663, -103.66717

Hourly Observations for June 24, 2016

Temp ( °F °C ) Dew Point ( °F °C ) Humidity (%) Winds ( mph kmh ) Pressure ( in mb ) Visibility ( mi km ) Precip ( " mm )
12:53 am 00:53 Clear 71 21.7 56 13.3 59 59 SSE 12 19 29.84 1011 10 16 0.00 0.00
1:53 am 01:53 Clear 69 20.6 58 14.4 68 68 SSE 8 13 29.81 1010 10 16 0.00 0.00
2:53 am 02:53 Clear 68 20 58 14.4 70 70 SW 5 7 29.79 1009 10 16 0.00 0.00
3:53 am 03:53 Clear 66 18.9 57 13.9 73 73 Calm 29.78 1008 10 16 0.00 0.00
4:53 am 04:53 Clear 62 16.7 56 13.3 80 80 E 5 7 29.82 1010 10 16 0.00 0.00
5:53 am 05:53 Sunny 61 16.1 56 13.3 84 84 ENE 5 7 29.80 1009 10 16 0.00 0.00
6:53 am 06:53 Sunny 66 18.9 57 13.9 73 73 E 5 7 29.80 1009 10 16 0.00 0.00
7:53 am 07:53 Sunny 74 23.3 58 14.4 57 57 ENE 5 7 29.80 1009 10 16 0.00 0.00
8:53 am 08:53 Sunny 78 25.6 53 11.7 42 42 Calm 29.81 1009 10 16 0.00 0.00
9:53 am 09:53 Sunny 82 27.8 53 11.7 37 37 ESE 6 9 29.79 1009 10 16 0.00 0.00
10:53 am 10:53 Sunny 87 30.6 52 11.1 30 30 VRB 6 9 29.78 1008 10 16 0.00 0.00
11:53 am 11:53 Sunny 92 33.3 47 8.3 21 21 W 6 9 29.76 1008 10 16 0.00 0.00
12:53 pm 12:53 Sunny 94 34.4 30 -1.1 10 10 VRB 5 7 29.73 1007 10 16 0.00 0.00
1:53 pm 13:53 Sunny 95 35 37 2.8 13 13 SE 8 13 29.72 1006 10 16 0.00 0.00
2:53 pm 14:53 Sunny 94 34.4 39 3.9 15 15 E 8 13 29.71 1006 10 16 0.00 0.00
3:53 pm 15:53 Sunny 90 32.2 50 10 25 25 WNW 15 24 29.75 1008 10 16 0.00 0.00
4:53 pm 16:53 Sunny 86 30 50 10 29 29 NW 12 19 29.76 1008 10 16 0.00 0.00
5:53 pm 17:53 Sunny 85 29.4 49 9.4 29 29 E 5 7 29.73 1007 10 16 0.00 0.00
6:53 pm 18:53 Sunny 82 27.8 54 12.2 38 38 S 8 13 29.71 1006 10 16 0.00 0.00
7:48 pm 19:48 Mostly Cloudy with Nearby Thunderstorms 79 26 52 11 39 39 WSW 30 48 29.65 1004 6 10 0.00 0.00
7:53 pm 19:53 Cloudy with Nearby Thunderstorms 78 25.6 51 10.6 39 39 WSW 31 50 29.78 1009 5 8 0.00 0.03
8:07 pm 20:07 Mostly Cloudy with Thunderstorms 77 25 53 11.7 43 43 SW 14 22 29.68 1005 10 16 0.00 0.03
8:22 pm 20:22 Partly Cloudy with Nearby Thunderstorms 75 24 55 13 50 50 WSW 7 11 29.68 1005 10 16 0.00 0.00
8:39 pm 20:39 Clear 77 25 52 11.1 42 42 ENE 10 17 29.68 1005 10 16 0.00 0.03
8:53 pm 20:53 Clear 75 23.9 53 11.7 46 46 ENE 13 20 29.73 1007 10 16 0.00 0.03
9:53 pm 21:53 Clear 75 23.9 51 10.6 43 43 ESE 8 13 29.73 1007 10 16 0.00 0.00
10:53 pm 22:53 Clear 69 20.6 56 13.3 63 63 SSW 7 11 29.72 1007 10 16 0.00 0.00
11:53 pm 23:53 Clear 69 20.6 54 12.2 59 59 WSW 5 7 29.72 1006 10 16 0.00 0.00

Powered by AerisWeather